RÉSULTATS    Les Foulées de l'ASFAS - Édition du 09/03/2014


Vous pouvez changer la distance ici.

Vous pouvez changer la distance ici.

Classement PDF Général Classement PDF Alphabétique /results/<span class='glyphicon glyphicon-picture'></span> Classement Temps Réel - Temps Puce

136 participants - 82 Hommes - 54 Femmes
0 licenciés (0%) - 136 non-licenciés (100%)

Temps moyen : 00:24:30




Pos. Temps Nom - Prénom Club Dossard Catégorie km/h
1 00:16:12 QUINCHAMP Laurent LMA 45 114 SEM (1 / 29) 18.5
2 00:16:54 RIOLET Maxence ASFAS 83 SEM (2 / 29) 17.7
3 00:17:09 MET Stephane EVMA 36 V1M (1 / 21) 17.4
4 00:17:20 CHARNI Walid ASFAS 67 SEM (3 / 29) 17.2
5 00:17:22 PERRIOT Anthony ASF-USONEVERS 101 SEM (4 / 29) 17.2
6 00:17:29 LINDOR Charly 1282 SEM (5 / 29) 17.1
7 00:17:30 GORIN Clement ECO CJF 73 CAM (1 / 7) 17.1
8 00:17:34 ALIANI Faissoile GIEN ATHLE MARATHON 92 SEM (6 / 29) 17.0
9 00:17:36 JACOB Camille ECO CJF 55 SEM (7 / 29) 17.0
10 00:17:40 BARAT David MAUVES ATTITUDES 102 SEM (8 / 29) 16.9
11 00:17:45 GERAY Stephane US VEND 23 V1M (2 / 21) 16.8
12 00:17:45 PEREIRA DE BARROS Jose ASFAS 66 V1M (3 / 21) 16.8
13 00:17:48 DANGE Yann S/L LMA MEUNG-SUR-LOIRE 257 SEM (9 / 29) 16.8
14 00:17:49 BADELIER Mathieu ASFAS TRIATHLON 45 87 SEM (10 / 29) 16.8
15 00:18:02 LAHOREAU Regis A3 TOURS 69 SEM (11 / 29) 16.6
16 00:18:13 TONI Benoit EC ORLEANS CERCLE JULES FERRY 27 SEM (12 / 29) 16.4
17 00:18:38 JAUBERT Stephane 33 V1M (4 / 21) 16.0
18 00:18:40 BRAIN Daniel ASFAS 45 V2M (1 / 14) 16.0
19 00:19:06 FOURNERET Kevin AS GIEN TRIATHLON 14 SEM (13 / 29) 15.7
20 00:19:06 BAUDRY Olivier EC ORLEANS CERCLE JULES FERRY 29 SEM (14 / 29) 15.7
21 00:19:16 COSSON Philippe SDIS 45 111 V2M (2 / 14) 15.5
22 00:19:33 GUILLARD Pascal ECO CJF 256 V1M (5 / 21) 15.3
23 00:19:39 RENARD Thibaut EVMA 37 SEM (15 / 29) 15.2
24 00:19:41 SALIN Gwenael 110 V1M (6 / 21) 15.2
25 00:19:46 BOULAIN Aurelien ASFAS TRIATHLON 254 CAM (2 / 7) 15.1